Wind_Speed
13 13 12 13 12 12 12 13 13 14 15 16 17 18 19 19 19 20 20 21 22 21 20 20 21 21 21 20 20 21 21 22 22 22 23 24 25 25 25 26 26 27 27
14 14 14 13 13 14 14 15 16 17 18 18 19 19 20 21 21 21 21 21 22 22 23 23 23 23 23 23 24 24 24 24 25 25 26 26 27 28 29 29 29 29 30
14 15 15 14 15 16 16 17 18 19 20 20 21 21 21 22 22 23 22 22 23 23 24 25 26 26 25 25 26 27 28 28 29 29 30 30 30 31 31 32 32 32 33
16 17 16 15 16 17 18 19 19 19 20 21 21 22 21 21 23 24 24 24 24 25 26 26 28 28 29 29 28 29 30 31 32 33 33 34 34 34 34 34 35 36 36
17 16 16 16 17 18 19 19 20 19 21 21 22 23 23 23 24 25 25 26 25 25 26 28 28 29 31 31 32 32 33 34 35 36 36 36 37 37 38 38 39 40 40
18 18 18 17 17 18 20 20 21 22 21 21 22 23 24 24 25 26 26 26 27 27 27 28 30 30 31 33 34 35 37 38 38 39 40 40 41 41 42 43 44 44 44
19 20 19 18 19 20 21 21 22 23 23 23 24 24 25 26 26 27 27 27 28 29 29 30 32 32 34 36 37 38 39 40 41 42 43 44 45 45 46 47 47 47 48
21 21 21 22 21 21 22 23 23 23 24 25 26 27 27 27 28 28 28 30 31 32 33 34 35 36 38 39 39 41 42 43 44 45 45 47 48 49 50 51 51 51 52
24 24 25 25 24 24 25 25 25 26 26 26 27 27 28 28 28 30 31 32 33 34 35 36 37 38 39 41 42 44 46 47 48 49 50 51 52 53 54 55 55 56 56
25 26 26 26 26 27 27 28 28 29 30 30 29 29 29 30 31 32 33 35 36 37 38 40 40 41 42 44 46 47 49 50 51 52 54 55 56 57 58 59 59 59 60
27 28 28 28 29 29 29 30 30 30 32 31 31 31 31 33 34 36 36 37 39 40 42 43 44 45 46 47 49 50 51 53 55 55 56 57 58 59 60 61 61 61 62
29 29 30 30 30 30 32 32 32 33 31 31 33 34 35 36 37 38 39 40 41 42 44 45 46 47 49 50 52 53 53 55 55 57 57 58 59 60 62 63 62 62 63
30 31 31 32 33 33 33 34 34 34 34 35 35 37 38 39 39 39 41 42 44 45 46 46 47 48 50 51 51 52 53 54 56 57 59 59 60 60 61 61 63 64 63
34 34 35 35 36 36 36 37 37 37 37 37 38 39 40 40 41 41 42 43 44 45 46 47 48 49 50 51 52 53 53 55 56 57 58 59 59 60 60 61 61 62 63
36 36 37 38 38 39 39 40 39 40 40 39 40 41 42 42 42 42 43 44 45 47 48 48 49 50 51 52 53 54 54 55 56 56 57 58 59 61 61 62 62 62 61
37 38 39 39 39 39 39 40 40 41 41 41 42 43 43 43 44 45 45 45 46 48 49 49 50 50 50 51 51 52 54 55 55 55 56 56 57 57 57 57 57 57 58
38 39 39 39 39 39 40 41 41 42 42 43 43 42 42 43 43 44 44 44 45 45 46 47 48 49 50 50 51 51 51 50 50 50 49 49 49 49 48 48 49 49 49
39 39 39 39 39 39 40 40 41 42 42 41 41 41 42 42 42 43 44 44 44 44 44 45 46 46 47 47 47 46 45 44 44 44 44 43 44 44 44 43 43 43 43
39 39 39 40 40 40 40 41 41 40 40 40 40 41 41 42 42 43 43 43 43 43 43 43 42 42 42 42 42 43 43 42 41 41 41 41 41 41 40 40 39 39 39
37 37 38 38 38 39 39 39 39 38 39 39 39 39 39 40 40 40 40 40 40 39 39 39 39 39 39 39 39 39 39 38 38 38 38 37 37 36 36 36 36 35 34
35 36 36 36 36 36 36 36 36 37 37 38 37 37 37 38 38 37 37 36 36 36 36 37 37 37 36 36 36 35 35 35 35 35 34 33 33 33 33 33 32 31 30
33 33 33 34 34 34 34 34 35 35 34 35 35 35 35 34 33 33 33 33 33 33 33 33 33 33 33 33 32 32 32 31 31 30 30 30 30 29 29 28 27 26 26
30 30 31 31 32 31 31 31 31 31 31 31 31 30 30 30 30 30 29 29 29 29 30 30 29 29 29 29 29 28 28 28 26 26 26 25 25 24 23 23 22 22 22
28 28 29 29 28 28 28 28 28 28 28 28 27 27 27 27 27 26 26 26 26 27 27 27 27 26 26 26 24 24 23 23 22 21 21 21 21 21 20 20 20 20 20
25 26 26 25 25 25 25 26 26 25 25 25 25 25 24 24 23 23 24 24 25 25 24 24 24 23 22 21 20 19 19 19 18 18 18 18 19 19 19 18 18 18 18
23 23 23 23 23 23 23 23 23 23 23 23 22 22 22 22 22 22 22 22 22 21 21 21 20 18 17 16 16 16 16 16 16 16 16 16 16 16 16 17 17 17 17
Wind_Direction
246 250 258 260 266 269 271 275 280 287 292 294 295 296 294 292 292 290 289 288 285 283 283 284 284 284 284 284 282 279 276 274 273 272 272 271 271 271 269 269 268 268 267
246 253 258 262 266 270 274 277 282 286 288 291 292 294 295 293 292 290 289 288 286 282 282 284 284 284 283 282 282 280 278 276 274 273 272 271 271 270 270 269 268 268 267
248 254 259 262 265 270 274 279 281 284 285 286 287 289 291 293 292 291 289 289 287 284 283 283 282 283 283 281 280 278 277 276 275 275 273 272 271 270 269 269 268 267 267
250 254 260 263 266 270 274 278 279 282 283 285 285 286 287 288 290 289 287 288 288 287 285 283 283 282 281 279 279 278 277 276 275 274 274 273 272 270 269 268 268 267 266
255 259 265 267 270 272 273 276 278 281 282 283 283 284 285 285 286 288 286 284 284 286 285 283 282 282 280 277 277 277 276 277 275 274 273 274 273 271 270 269 269 269 268
259 263 268 271 271 272 274 277 277 279 281 282 283 284 285 285 285 284 284 282 282 284 284 283 282 281 280 278 277 276 275 275 274 274 273 273 271 270 269 270 270 270 269
266 267 268 271 272 274 276 278 281 279 282 281 282 284 283 284 285 285 283 281 281 282 281 281 281 279 279 278 277 276 275 274 274 274 273 273 272 272 271 270 270 270 269
267 270 272 271 274 277 279 279 280 280 279 278 281 282 283 282 282 282 282 281 281 280 279 280 279 278 278 277 277 276 276 275 275 275 275 275 273 273 273 271 270 269 269
269 272 273 273 274 278 281 281 281 281 280 280 280 282 284 282 281 281 281 280 279 280 280 280 280 279 278 277 277 276 276 276 276 276 275 276 275 274 274 273 271 269 268
273 275 277 277 276 278 280 281 281 283 282 281 280 280 282 283 281 280 280 280 280 279 280 281 281 281 280 278 278 277 276 275 275 276 276 276 276 276 275 274 272 271 268
274 277 278 278 277 279 280 281 284 284 284 282 282 281 282 283 282 281 280 280 281 280 280 280 280 280 280 279 279 279 277 276 277 277 277 277 277 277 275 274 272 271 269
276 278 278 277 279 281 282 283 283 283 283 283 282 282 283 284 282 281 280 281 281 281 281 281 280 280 280 280 281 280 279 279 279 278 278 278 278 277 276 273 272 270 269
277 278 280 281 283 284 285 285 283 284 284 283 282 282 282 282 282 281 280 281 281 281 282 281 281 281 281 281 282 281 281 281 280 279 279 279 278 278 277 275 273 271 270
279 279 281 283 284 285 286 285 286 287 286 284 283 283 282 281 282 282 282 282 283 283 283 282 282 281 281 282 283 283 282 282 282 281 281 280 280 278 278 276 275 274 271
278 280 281 283 284 284 284 285 286 286 286 285 284 284 284 284 283 283 283 282 283 283 283 282 281 282 282 283 283 284 284 283 283 283 282 282 282 281 281 279 278 277 275
279 281 282 282 283 283 283 284 285 286 286 286 286 285 285 286 285 284 284 283 283 283 282 282 282 283 283 283 283 284 284 284 284 285 285 285 285 285 284 283 281 279 278
278 279 281 282 282 284 285 285 286 285 285 286 286 286 286 287 286 285 285 284 284 285 284 284 283 283 282 283 285 286 287 287 288 288 288 288 288 287 287 286 284 283 281
278 280 281 284 285 285 285 285 286 286 286 286 286 286 285 286 286 286 286 286 286 287 287 286 287 287 286 287 288 289 289 290 291 291 291 291 291 290 289 289 288 286 284
280 282 283 284 285 286 286 285 285 286 286 287 287 287 286 286 286 286 286 286 286 287 287 288 289 290 290 290 291 292 291 292 292 292 292 293 293 293 292 291 290 288 286
281 281 283 284 285 286 286 286 286 286 286 287 287 287 287 288 288 287 288 288 288 288 288 290 291 292 292 293 294 294 295 296 296 296 296 296 296 296 296 294 293 291 290
281 282 283 284 285 285 286 286 286 286 286 286 287 287 288 289 289 289 289 289 289 290 291 292 292 293 294 295 296 297 298 299 299 299 299 299 299 299 298 298 297 295 294
281 282 283 283 284 285 286 286 287 287 288 288 288 289 290 290 290 290 290 291 291 292 293 294 294 295 296 297 299 300 302 302 303 303 303 303 303 303 302 302 302 301 300
282 282 283 284 286 287 287 288 290 290 291 291 291 291 292 292 292 291 292 292 293 295 296 297 297 298 298 299 300 302 304 305 306 306 309 312 313 312 311 310 308 307 307
282 283 285 286 287 288 289 291 292 293 293 293 293 294 295 295 294 295 295 295 296 298 299 300 301 301 301 302 303 306 309 311 312 315 318 320 322 322 322 320 319 317 316
284 285 286 286 288 290 292 293 294 294 293 294 294 295 296 297 297 297 297 298 299 301 301 303 304 306 307 308 310 312 316 319 321 324 326 328 329 330 330 331 330 329 328
286 287 287 287 289 291 293 293 293 294 295 295 296 298 300 300 300 301 302 302 303 305 306 308 310 312 313 316 318 321 324 327 329 332 334 336 337 338 338 340 342 341 339
Height
5882 5882 5882 5883 5883 5882 5882 5882 5881 5881 5880 5879 5878 5876 5875 5874 5874 5873 5872 5871 5870 5869 5868 5867 5866 5865 5865 5863 5862 5862 5861 5861 5860 5859 5859 5859 5858 5858 5857 5857 5857 5856 5856
5878 5878 5879 5879 5879 5879 5878 5878 5878 5877 5876 5875 5874 5872 5871 5870 5869 5867 5867 5866 5864 5863 5863 5862 5861 5860 5859 5858 5857 5857 5856 5855 5855 5854 5853 5852 5852 5852 5851 5851 5851 5850 5850
5874 5875 5875 5875 5875 5875 5875 5874 5873 5872 5871 5870 5869 5868 5866 5864 5863 5862 5861 5860 5859 5858 5857 5856 5855 5854 5853 5852 5852 5851 5850 5849 5848 5848 5847 5846 5845 5844 5844 5844 5843 5842 5842
5870 5870 5870 5871 5871 5870 5870 5869 5868 5867 5866 5865 5864 5862 5861 5859 5858 5856 5856 5855 5854 5852 5851 5850 5849 5848 5847 5846 5845 5844 5843 5842 5841 5840 5839 5838 5838 5837 5836 5835 5835 5834 5833
5864 5865 5865 5865 5866 5865 5865 5864 5863 5861 5860 5859 5858 5856 5855 5854 5852 5850 5850 5849 5847 5846 5845 5843 5842 5841 5840 5839 5838 5837 5836 5834 5833 5832 5831 5830 5829 5828 5827 5826 5825 5825 5824
5859 5859 5859 5859 5859 5859 5859 5858 5857 5856 5855 5853 5852 5851 5849 5848 5846 5845 5843 5842 5841 5839 5838 5836 5835 5834 5832 5831 5830 5829 5827 5826 5824 5823 5821 5820 5819 5818 5817 5816 5815 5814 5813
5853 5853 5853 5853 5853 5853 5852 5852 5851 5850 5849 5847 5846 5844 5843 5841 5840 5838 5837 5835 5834 5832 5831 5829 5827 5826 5825 5823 5821 5819 5818 5816 5814 5813 5811 5810 5808 5807 5805 5804 5803 5802 5801
5847 5847 5847 5847 5846 5846 5846 5845 5844 5843 5842 5840 5839 5837 5836 5835 5832 5831 5829 5828 5826 5825 5823 5821 5819 5817 5816 5814 5812 5810 5808 5806 5804 5802 5800 5798 5796 5795 5793 5792 5790 5789 5788
5841 5840 5839 5838 5839 5839 5838 5838 5836 5835 5834 5833 5832 5830 5828 5826 5825 5824 5822 5820 5818 5817 5815 5812 5810 5808 5806 5804 5802 5799 5797 5795 5792 5790 5788 5785 5783 5782 5780 5778 5776 5775 5774
5834 5833 5833 5831 5831 5830 5830 5829 5828 5827 5826 5825 5824 5822 5821 5819 5817 5815 5814 5811 5809 5807 5805 5803 5801 5798 5795 5792 5790 5787 5785 5782 5780 5777 5775 5772 5769 5767 5765 5763 5761 5759 5758
5826 5826 5825 5824 5824 5823 5822 5821 5820 5819 5817 5816 5815 5813 5812 5810 5808 5806 5804 5802 5799 5797 5795 5792 5790 5787 5784 5781 5778 5775 5772 5769 5766 5763 5760 5757 5754 5752 5749 5747 5744 5742 5740
5819 5818 5817 5817 5816 5815 5813 5812 5811 5811 5809 5807 5806 5804 5803 5800 5798 5796 5794 5791 5788 5786 5784 5781 5778 5775 5772 5769 5766 5763 5759 5756 5752 5748 5745 5742 5739 5736 5733 5730 5728 5725 5723
5811 5810 5809 5808 5807 5806 5805 5804 5802 5801 5800 5798 5796 5794 5792 5789 5787 5785 5783 5780 5777 5774 5772 5769 5766 5763 5759 5756 5752 5749 5745 5742 5738 5734 5730 5726 5723 5719 5716 5713 5710 5708 5706
5801 5800 5800 5799 5798 5796 5795 5794 5792 5791 5789 5787 5785 5783 5780 5778 5776 5774 5772 5769 5765 5762 5759 5757 5754 5750 5747 5743 5739 5735 5732 5727 5723 5719 5714 5710 5706 5702 5699 5695 5692 5689 5687
5791 5791 5790 5789 5788 5786 5785 5783 5782 5780 5778 5776 5775 5772 5769 5767 5764 5762 5760 5757 5754 5750 5747 5744 5741 5737 5734 5730 5726 5722 5717 5713 5708 5704 5699 5694 5690 5685 5681 5678 5674 5670 5668
5782 5781 5781 5779 5778 5776 5774 5772 5771 5769 5767 5765 5763 5760 5757 5754 5752 5750 5747 5744 5741 5738 5734 5731 5727 5724 5720 5716 5712 5708 5704 5699 5693 5688 5683 5679 5674 5669 5665 5661 5657 5654 5651
5773 5772 5771 5769 5767 5765 5763 5762 5760 5758 5756 5754 5751 5748 5746 5743 5740 5737 5735 5732 5729 5725 5721 5717 5714 5710 5707 5703 5699 5694 5690 5685 5679 5674 5669 5664 5659 5655 5651 5646 5642 5639 5636
5764 5762 5760 5758 5756 5755 5753 5751 5749 5746 5744 5742 5739 5737 5734 5731 5728 5725 5722 5719 5716 5713 5709 5705 5701 5698 5694 5690 5686 5682 5677 5672 5667 5662 5657 5653 5648 5643 5639 5635 5630 5626 5623
5754 5752 5750 5748 5746 5744 5742 5740 5737 5735 5733 5730 5728 5725 5723 5720 5717 5713 5710 5707 5704 5701 5698 5694 5690 5686 5682 5678 5674 5670 5665 5660 5656 5651 5647 5642 5638 5633 5628 5624 5620 5615 5612
5744 5742 5740 5738 5736 5734 5732 5729 5727 5724 5722 5719 5717 5714 5712 5709 5705 5702 5699 5696 5693 5690 5686 5683 5679 5676 5672 5668 5664 5659 5655 5650 5646 5641 5636 5632 5628 5623 5619 5614 5610 5606 5602
5734 5732 5731 5729 5726 5724 5722 5719 5717 5714 5712 5709 5707 5704 5701 5698 5695 5692 5689 5685 5682 5679 5676 5673 5670 5666 5662 5658 5654 5650 5645 5641 5636 5632 5628 5623 5619 5614 5610 5605 5601 5597 5593
5725 5723 5722 5720 5718 5715 5713 5710 5708 5705 5702 5699 5697 5694 5691 5688 5685 5682 5679 5676 5674 5670 5667 5664 5660 5657 5653 5649 5645 5641 5637 5633 5629 5625 5620 5616 5611 5607 5602 5598 5594 5590 5586
5717 5715 5713 5712 5709 5707 5704 5702 5699 5696 5694 5691 5688 5685 5682 5679 5677 5674 5671 5668 5665 5662 5659 5656 5652 5649 5645 5642 5638 5634 5630 5626 5622 5618 5614 5610 5605 5601 5596 5592 5588 5584 5581
5709 5707 5706 5704 5702 5699 5696 5694 5691 5689 5686 5683 5681 5678 5675 5672 5669 5666 5664 5661 5658 5656 5653 5649 5646 5642 5639 5635 5632 5629 5625 5621 5617 5613 5609 5605 5601 5596 5592 5588 5584 5580 5576
5702 5700 5698 5696 5694 5692 5689 5687 5684 5682 5679 5677 5674 5671 5668 5666 5663 5660 5657 5655 5652 5649 5646 5643 5640 5636 5633 5629 5626 5623 5620 5617 5613 5610 5606 5602 5598 5593 5589 5585 5581 5577 5573
5695 5693 5691 5689 5687 5685 5683 5681 5678 5676 5673 5670 5668 5665 5663 5660 5657 5654 5651 5649 5646 5643 5641 5638 5634 5631 5628 5625 5623 5620 5617 5614 5610 5607 5603 5600 5596 5592 5588 5584 5580 5575 5571